Date String (YYYY-MM-DD hh:mm:ss) UTC,Instrument flags,absolute air pressure of the measurement (hPa),sample flow rate (lpm),inlet stack bypass flow (lpm),air temperature of the measurement (°C),ambient temperature measured by the external sensor (°C),aerosol sample conditioner tube jacket temperature (°C),OPC LED temperature (°C),internal box temperature (°C),relative humidity of the measurement (%),span deviation,mass concentration of particles derived from Lorenz-Mie calculation of OPC scattering (μg/m³),mass concentration of particles derived from Lorenz-Mie calculation of OPC scattering (μg/m³),mass concentration of particles derived from Lorenz-Mie calculation of OPC scattering (μg/m³)
DateTimeUTC,F1_M11,P_M11,Q1_M11,Q2_M11,T1_M11,T2_M11,T3_M11,T4_M11,T5_M11,U1_M11,ZSPAN_M11,X2_M11,X0_M11,X1_M11
2023-08-28 13:00:00,SystemResetWarning,0836.5,5.00,000.00,029.4,027.3,000.0,037.7,030.3,33.9,0000.0,0004.52,0007.70,0004.13
2023-08-28 13:01:00,SystemResetWarning,0836.5,5.00,000.00,029.4,027.4,000.0,037.7,030.4,33.8,0000.0,0004.52,0007.65,0004.13
2023-08-28 13:02:00,SystemResetWarning,0836.5,5.00,000.00,029.4,027.4,000.0,037.7,030.4,33.8,0000.0,0004.50,0007.62,0004.13
2023-08-28 13:03:00,SystemResetWarning,0836.5,5.00,000.00,029.4,027.5,000.0,037.7,030.4,33.8,0000.0,0004.51,0007.66,0004.12
2023-08-28 13:04:00,SystemResetWarning,0836.4,5.00,000.00,029.4,027.5,000.0,037.8,030.4,33.8,0000.0,0004.50,0007.66,0004.10
2023-08-28 13:05:00,SystemResetWarning,0836.4,4.99,000.00,029.4,027.6,000.0,037.8,030.5,33.8,0000.2,0004.46,0007.60,0004.08
2023-08-28 13:06:00,SystemResetWarning,0836.5,5.01,000.00,029.4,027.6,000.0,037.8,030.5,33.7,0000.0,0004.46,0008.26,0004.07
2023-08-28 13:07:00,SystemResetWarning,0836.5,5.00,000.00,029.4,027.6,000.0,037.8,030.5,33.8,0000.0,0004.48,0008.28,0004.08
2023-08-28 13:08:00,SystemResetWarning,0836.5,5.00,000.00,029.4,027.7,000.0,037.8,030.5,33.9,0000.5,0004.51,0008.31,0004.09
2023-08-28 13:09:00,SystemResetWarning,0836.5,5.00,000.00,029.4,027.7,000.0,037.9,030.6,33.8,0000.7,0004.53,0008.51,0004.09
2023-08-28 13:10:00,SystemResetWarning,0836.5,5.00,000.00,029.5,027.7,000.0,037.9,030.6,33.9,0001.5,0004.52,0008.26,0004.09
2023-08-28 13:11:00,SystemResetWarning,0836.5,5.00,000.00,029.5,027.7,000.0,037.9,030.6,34.1,0001.3,0004.55,0008.33,0004.11
2023-08-28 13:12:00,SystemResetWarning,0836.6,5.00,000.00,029.5,027.7,000.0,037.9,030.6,34.1,0001.1,0004.58,0008.46,0004.11
2023-08-28 13:13:00,SystemResetWarning,0836.6,4.99,000.00,029.5,027.4,000.0,037.9,030.6,34.0,0000.5,0004.61,0008.68,0004.14
2023-08-28 13:14:00,SystemResetWarning,0836.5,4.99,000.00,029.4,025.6,000.0,037.7,030.3,34.1,-000.5,0004.60,0008.62,0004.14
2023-08-28 13:15:00,SystemResetWarning,0836.5,5.01,000.00,029.3,024.2,000.0,037.6,030.0,34.3,-001.0,0004.62,0008.67,0004.15
2023-08-28 13:16:00,SystemResetWarning,0836.5,5.02,000.00,029.2,023.9,000.0,037.5,029.8,34.5,-000.1,0004.65,0008.81,0004.15
2023-08-28 13:17:00,SystemResetWarning,0836.5,5.00,000.00,029.0,024.2,000.0,037.5,029.6,34.8,-000.6,0004.65,0008.16,0004.16
2023-08-28 13:18:00,SystemResetWarning,0836.5,4.97,000.00,028.9,024.6,000.0,037.5,029.6,35.0,-001.2,0004.62,0008.18,0004.15
2023-08-28 13:19:00,SystemResetWarning,0836.5,5.04,000.00,028.9,025.1,000.0,037.5,029.8,35.0,-001.6,0004.59,0008.19,0004.14
2023-08-28 13:20:00,SystemResetWarning,0836.5,4.96,000.00,029.1,025.5,000.0,037.5,029.9,34.6,-001.1,0004.57,0007.89,0004.14
2023-08-28 13:21:00,SystemResetWarning,0836.5,5.02,000.00,029.2,025.8,000.0,037.5,030.0,34.4,-000.9,0004.56,0008.08,0004.14
2023-08-28 13:22:00,SystemResetWarning,0836.5,4.99,000.00,029.3,026.1,000.0,037.5,030.0,34.3,0000.0,0004.57,0008.14,0004.13
2023-08-28 13:23:00,SystemResetWarning,0836.6,4.99,000.00,029.3,026.3,000.0,037.5,030.1,34.2,0000.0,0004.54,0008.04,0004.14
2023-08-28 13:24:00,SystemResetWarning,0836.7,5.00,000.00,029.3,026.5,000.0,037.5,030.1,34.2,0000.0,0004.50,0007.81,0004.12
2023-08-28 13:25:00,SystemResetWarning,0836.6,5.01,000.00,029.3,026.7,000.0,037.6,030.1,34.2,0000.0,0004.50,0008.15,0004.11
2023-08-28 13:26:00,SystemResetWarning,0836.6,5.01,000.00,029.3,026.8,000.0,037.6,030.1,34.1,0000.0,0004.50,0008.18,0004.12
2023-08-28 13:27:00,SystemResetWarning,0836.6,5.00,000.00,029.3,026.9,000.0,037.6,030.2,34.1,0000.0,0004.49,0008.07,0004.11
2023-08-28 13:28:00,SystemResetWarning,0836.7,5.00,000.00,029.3,027.0,000.0,037.6,030.2,34.2,0000.0,0004.50,0008.05,0004.10
2023-08-28 13:29:00,SystemResetWarning,0836.8,5.00,000.00,029.3,027.1,000.0,037.6,030.2,34.2,0000.0,0004.49,0008.01,0004.10
2023-08-28 13:30:00,SystemResetWarning,0836.8,4.99,000.00,029.3,027.1,000.0,037.7,030.2,34.1,0000.0,0004.49,0007.92,0004.10
2023-08-28 13:31:00,SystemResetWarning,0836.8,5.00,000.00,029.3,027.2,000.0,037.7,030.3,34.1,0000.0,0004.48,0007.93,0004.09
2023-08-28 13:32:00,SystemResetWarning,0836.8,5.01,000.00,029.3,027.2,000.0,037.7,030.3,34.1,0000.0,0004.47,0007.75,0004.08
2023-08-28 13:33:00,SystemResetWarning,0836.7,5.00,000.00,029.3,027.3,000.0,037.7,030.3,34.0,0000.0,0004.45,0007.54,0004.07
2023-08-28 13:34:00,SystemResetWarning,0836.7,5.01,000.00,029.3,027.3,000.0,037.7,030.3,34.1,0000.0,0004.44,0007.46,0004.06
2023-08-28 13:35:00,SystemResetWarning,0836.8,5.00,000.00,029.3,027.4,000.0,037.7,030.3,34.1,-000.3,0004.44,0007.40,0004.06
2023-08-28 13:36:00,SystemResetWarning,0836.8,5.00,000.00,029.3,027.4,000.0,037.7,030.4,34.2,-000.1,0004.45,0007.09,0004.06
2023-08-28 13:37:00,SystemResetWarning,0836.8,5.00,000.00,029.3,027.4,000.0,037.7,030.4,34.3,0000.9,0004.44,0006.90,0004.07
2023-08-28 13:38:00,SystemResetWarning,0836.8,4.99,000.00,029.3,027.4,000.0,037.8,030.4,34.4,0001.4,0004.46,0007.12,0004.08
2023-08-28 13:39:00,SystemResetWarning,0836.9,5.00,000.00,029.3,027.5,000.0,037.8,030.4,34.4,0001.9,0004.45,0007.41,0004.09
2023-08-28 13:40:00,SystemResetWarning,0836.9,5.01,000.00,029.3,027.5,000.0,037.8,030.4,34.4,0001.8,0004.45,0007.41,0004.09
2023-08-28 13:41:00,SystemResetWarning,0836.9,5.00,000.00,029.3,027.5,000.0,037.8,030.5,34.3,0001.4,0004.46,0007.47,0004.09
2023-08-28 13:42:00,SystemResetWarning,0836.9,5.01,000.00,029.3,027.5,000.0,037.8,030.5,34.2,0001.7,0004.48,0007.55,0004.09
2023-08-28 13:43:00,SystemResetWarning,0836.9,5.01,000.00,029.3,027.6,000.0,037.8,030.5,34.3,0001.3,0004.48,0007.64,0004.10
2023-08-28 13:44:00,SystemResetWarning,0836.9,5.01,000.00,029.3,027.6,000.0,037.8,030.5,34.2,0001.3,0004.51,0007.78,0004.10
2023-08-28 13:45:00,SystemResetWarning,0836.9,5.01,000.00,029.3,027.6,000.0,037.8,030.5,34.2,0001.3,0004.51,0007.86,0004.10
2023-08-28 13:46:00,SystemResetWarning,0836.9,5.00,000.00,029.3,027.6,000.0,037.8,030.5,34.2,0001.2,0004.52,0008.27,0004.10
2023-08-28 13:47:00,SystemResetWarning,0837.0,5.00,000.00,029.3,027.6,000.0,037.8,030.5,34.2,0001.0,0004.52,0008.36,0004.10
2023-08-28 13:48:00,SystemResetWarning,0837.0,5.00,000.00,029.3,027.6,000.0,037.8,030.5,34.3,0000.6,0004.52,0008.34,0004.10
2023-08-28 13:49:00,SystemResetWarning,0836.9,4.99,000.00,029.3,027.6,000.0,037.8,030.5,34.2,0000.4,0004.50,0008.22,0004.10
2023-08-28 13:50:00,SystemResetWarning,0837.0,5.00,000.00,029.3,027.6,000.0,037.8,030.5,34.3,-000.1,0004.51,0008.02,0004.11
2023-08-28 13:51:00,SystemResetWarning,0837.0,5.00,000.00,029.3,027.7,000.0,037.8,030.6,34.3,-000.0,0004.53,0008.04,0004.12
2023-08-28 13:52:00,SystemResetWarning,0837.1,5.00,000.00,029.3,027.6,000.0,037.8,030.6,34.2,-000.3,0004.51,0008.62,0004.13
2023-08-28 13:53:00,SystemResetWarning,0837.1,4.99,000.00,029.3,026.4,000.0,037.7,030.3,34.3,-000.5,0004.53,0008.88,0004.14
2023-08-28 13:54:00,SystemResetWarning,0837.0,5.00,000.00,029.2,025.0,000.0,037.6,030.1,34.8,-000.1,0004.55,0009.18,0004.14
2023-08-28 13:55:00,SystemResetWarning,0836.9,5.01,000.00,029.1,024.6,000.0,037.5,029.9,35.3,-000.2,0004.52,0009.03,0004.14
2023-08-28 13:56:00,SystemResetWarning,0837.0,5.01,000.00,029.1,024.9,000.0,037.5,029.8,35.2,-000.3,0004.52,0008.98,0004.15
2023-08-28 13:57:00,SystemResetWarning,0837.0,5.01,000.00,029.4,025.2,000.0,037.5,030.0,35.1,-000.1,0004.52,0008.60,0004.15
2023-08-28 13:58:00,SystemResetWarning,0837.0,4.99,000.00,029.7,025.6,000.0,037.5,030.2,34.2,0000.1,0004.52,0008.48,0004.16
2023-08-28 13:59:00,SystemResetWarning,0837.1,5.00,000.00,029.8,025.9,000.0,037.6,030.3,33.9,0000.2,0004.56,0008.58,0004.16
